Simultaneous Nadir Overpasses (SNOs) Predictions

Prediction of SNOs between AQUA and NPP Satellite Orbit:

Table of predicted SNOs for the next 14.0 days since TLE Epoch: 12/2/2016
Index Date (AQUA) Time (AQUA) Lat,Lon (AQUA) SZA (AQUA ) Date (NPP) Time (NPP) Lat,Lon (NPP) SZA (NPP ) Distance(km) Time Diff (sec)
1 12/04/2016 20:59:17 -74.84, -79.02 60.30 12/04/2016 20:58:04 -74.84, -78.95 60.25 2.10 73
2 12/04/2016 21:48:24 75.74, 91.11 118.78 12/04/2016 21:48:29 75.73, 91.03 118.79 2.56 5
3 12/07/2016 13:15:44 -74.94, 37.12 60.03 12/07/2016 13:14:57 -74.93, 37.05 59.97 2.10 47
4 12/07/2016 14:04:43 76.23,-151.51 118.63 12/07/2016 14:05:13 76.23,-151.53 118.60 0.65 30
5 12/10/2016 05:31:59 -75.58, 154.74 60.37 12/10/2016 05:31:37 -75.58, 154.75 60.35 0.28 22
6 12/10/2016 06:20:59 76.79, -33.72 118.33 12/10/2016 06:21:54 76.80, -33.64 118.26 2.20 55
7 12/12/2016 20:59:17 74.70, 100.64 120.81 12/12/2016 20:58:04 74.70, 100.64 120.88 0.17 73
8 12/12/2016 21:48:23 -75.80, -88.71 60.34 12/12/2016 21:48:27 -75.79, -88.79 60.32 2.23 4
9 12/15/2016 13:15:39 75.02,-142.64 120.70 12/15/2016 13:14:52 75.01,-142.71 120.76 2.08 47




NCC Satellite Simultaneous Nadir Overpasses (SNOs) Prediction Service
